Date_and_time,latitude,longitude,wind_speed,RelWindDirFrom,WindDirFrom,air_pressure,air_temperature,relative_humidity,Temp,platform_speed_wrt_ground,air_pressure_at_mean_sea_level,platform_orientation
2019-05-06 00:00,50.6304316666667,-96.9807616666667,11.9,14.0,13,991.34,1.5,82,5.63,0.0,1019.15,138.7
2019-05-06 00:10,50.63044,-96.98079,12.7,14.5,10,991.43,1.5,81,5.63,0.0,1019.24,138.7
2019-05-06 00:20,50.6304416666667,-96.98079,12.8,15.4,9,991.49,1.4,83,5.63,0.0,1019.31,138.7
2019-05-06 00:30,50.6304416666667,-96.9807833333333,14.6,19.3,6,991.53,1.4,82,5.62,0.0,1019.35,138.7
2019-05-06 00:40,50.630445,-96.98078,16.6,19.7,4,991.49,1.3,81,5.61,0.0,1019.31,138.7
2019-05-06 00:50,50.6304316666667,-96.9807833333333,17.2,20.0,5,991.56,1.1,79,5.61,0.0,1019.39,138.7
2019-05-06 01:00,50.6304333333333,-96.9807783333333,17.2,20.8,8,991.62,1.0,79,5.60,0.0,1019.47,235.2
2019-05-06 01:10,50.630435,-96.9807733333333,17.7,21.3,11,991.62,0.8,79,5.58,0.0,1019.47,235.2
2019-05-06 01:20,50.6304683333333,-96.9807966666667,17.8,20.6,8,991.67,0.7,80,5.57,0.0,1019.53,235.2
2019-05-06 01:30,50.6304416666667,-96.9807583333333,16.7,19.8,6,991.77,0.7,80,5.56,0.0,1019.63,235.2
2019-05-06 01:40,50.6304416666667,-96.9807716666667,17.1,20.6,8,991.80,0.7,80,5.55,0.0,1019.66,235.2
2019-05-06 01:50,50.6304366666667,-96.9807683333333,17.0,20.2,7,991.96,0.5,78,5.55,0.0,1019.83,235.2
2019-05-06 02:00,50.6304383333333,-96.9807666666667,17.1,20.0,10,992.00,0.5,79,5.54,0.0,1019.88,66.4
2019-05-06 02:10,50.63044,-96.98077,16.2,19.8,10,992.17,0.5,78,5.50,0.0,1020.05,66.4
2019-05-06 02:20,50.63045,-96.9807883333333,15.2,17.7,10,992.35,0.4,77,5.47,0.0,1020.25,66.4
2019-05-06 02:30,50.6304466666667,-96.9807833333333,15.5,18.2,5,992.54,0.4,78,5.44,0.0,1020.45,66.4
2019-05-06 02:40,50.6304283333333,-96.98078,13.4,17.9,2,992.75,0.4,80,5.44,0.0,1020.67,66.4
2019-05-06 02:50,50.6304183333333,-96.9807783333333,14.9,18.8,4,992.77,0.4,79,5.45,0.0,1020.70,66.4
2019-05-06 03:00,50.6304333333333,-96.9807633333333,15.1,18.4,4,992.92,0.3,80,5.43,0.0,1020.86,270.0
2019-05-06 03:10,50.6304366666667,-96.9807616666667,11.9,15.1,1,993.19,0.2,79,5.41,0.0,1021.16,270.0
2019-05-06 03:20,50.6304466666667,-96.9807833333333,11.6,15.1,357,993.28,0.1,81,5.41,0.0,1021.26,270.0
2019-05-06 03:30,50.6304416666667,-96.98078,14.3,17.9,7,993.31,-0.1,82,5.42,0.0,1021.29,270.0
2019-05-06 03:40,50.6304433333333,-96.9807783333333,13.4,16.9,9,993.40,-0.2,84,5.42,0.0,1021.40,270.0
2019-05-06 03:50,50.630445,-96.98078,13.7,16.6,8,993.39,-0.3,85,5.40,0.0,1021.39,270.0
2019-05-06 04:00,50.630445,-96.9807783333333,12.0,15.9,352,993.48,-0.4,78,5.40,0.0,1021.49,38.0
2019-05-06 04:10,50.6304533333333,-96.980795,10.9,13.7,345,993.55,-0.6,75,5.40,0.0,1021.58,38.0
2019-05-06 04:20,50.630445,-96.9807733333333,8.9,12.4,342,993.64,-0.7,74,5.40,0.0,1021.68,38.0
2019-05-06 04:30,50.630445,-96.9807733333333,7.9,10.1,335,993.71,-0.8,73,5.40,0.0,1021.76,38.0
2019-05-06 04:40,50.6304416666667,-96.9807733333333,7.0,9.7,325,993.71,-0.9,72,5.39,0.0,1021.76,38.0
2019-05-06 04:50,50.63044,-96.9807733333333,6.1,8.9,325,993.75,-0.9,71,5.37,0.0,1021.82,38.0
2019-05-06 05:00,50.63044,-96.9807766666667,6.2,9.7,320,993.84,-1.0,71,5.37,0.0,1021.91,270.0
2019-05-06 05:10,50.6304383333333,-96.9807766666667,6.5,8.7,323,993.87,-1.0,72,5.37,0.0,1021.95,270.0
2019-05-06 05:20,50.6304366666667,-96.9807766666667,6.8,10.2,326,993.86,-1.1,72,5.37,0.0,1021.95,270.0
2019-05-06 05:30,50.6304333333333,-96.980775,5.4,7.8,321,993.99,-1.1,72,5.37,0.0,1022.09,270.0
2019-05-06 05:40,50.6304366666667,-96.9807666666667,6.0,8.5,315,994.02,-1.1,71,5.37,0.0,1022.13,270.0
2019-05-06 05:50,50.6304366666667,-96.98076,5.6,7.7,319,994.04,-1.1,72,5.37,0.0,1022.16,270.0
2019-05-06 06:00,50.63044,-96.9807716666667,4.2,6.3,292,994.11,-1.2,72,5.37,0.0,1022.24,345.5
2019-05-06 06:10,50.630435,-96.9807683333333,4.3,6.2,296,994.17,-1.4,72,5.36,0.0,1022.32,345.5
2019-05-06 06:20,50.630435,-96.9807683333333,4.6,6.0,311,994.15,-1.4,73,5.35,0.0,1022.30,345.5
2019-05-06 06:30,50.630435,-96.98077,5.6,8.5,313,994.11,-1.3,73,5.35,0.0,1022.26,345.5
2019-05-06 06:40,50.630435,-96.98077,6.1,8.4,310,994.06,-1.3,73,5.35,0.0,1022.22,345.5
2019-05-06 06:50,50.630435,-96.98077,6.5,10.1,334,994.10,-1.2,74,5.35,0.0,1022.25,345.5
2019-05-06 07:00,50.630435,-96.98077,8.0,10.9,338,994.08,-1.2,75,5.35,0.0,1022.24,111.5
2019-05-06 07:10,50.6304366666667,-96.98077,8.0,11.8,338,994.14,-1.2,78,5.33,0.0,1022.30,111.5
2019-05-06 07:20,50.6304366666667,-96.9807683333333,6.5,9.2,334,994.18,-1.3,80,5.33,0.0,1022.34,111.5
2019-05-06 07:30,50.6304383333333,-96.9807666666667,5.5,8.1,325,994.27,-1.4,80,5.33,0.0,1022.44,111.5
2019-05-06 07:40,50.6304383333333,-96.9807666666667,7.6,10.9,329,994.26,-1.5,85,5.30,0.0,1022.44,111.5
2019-05-06 07:50,50.6304383333333,-96.9807666666667,7.5,9.7,325,994.30,-1.6,89,5.28,0.0,1022.50,111.5
2019-05-06 08:00,50.6304383333333,-96.9807683333333,6.8,10.7,320,994.36,-1.8,94,5.28,0.0,1022.58,90.0
2019-05-06 08:10,50.6304383333333,-96.9807666666667,6.0,8.9,314,994.43,-1.9,97,5.27,0.0,1022.65,90.0
2019-05-06 08:20,50.6304383333333,-96.9807666666667,6.3,9.1,320,994.53,-1.9,99,5.27,0.0,1022.75,90.0
2019-05-06 08:30,50.6304383333333,-96.9807666666667,6.0,9.5,317,994.62,-2.0,99,5.26,0.0,1022.85,90.0
2019-05-06 08:40,50.6304466666667,-96.9807616666667,4.7,7.9,315,994.70,-2.0,99,5.25,0.0,1022.92,90.0
2019-05-06 08:50,50.63045,-96.9807666666667,4.9,7.8,317,994.79,-2.1,99,5.24,0.0,1023.02,90.0
2019-05-06 09:00,50.6304483333333,-96.9807633333333,5.6,7.5,324,994.82,-2.2,99,5.22,0.0,1023.06,48.3
2019-05-06 09:10,50.63045,-96.9807633333333,5.2,7.3,320,994.82,-2.2,99,5.22,0.0,1023.05,48.3
2019-05-06 09:20,50.63045,-96.98076,4.7,6.3,317,994.87,-2.2,99,5.23,0.0,1023.12,48.3
2019-05-06 09:30,50.6304333333333,-96.9807616666667,5.3,7.3,315,994.98,-2.3,100,5.22,0.0,1023.24,48.3
2019-05-06 09:40,50.63044,-96.9807616666667,4.8,6.4,315,995.09,-2.4,100,5.22,0.0,1023.37,48.3
2019-05-06 09:50,50.6304533333333,-96.9807716666667,5.3,7.2,317,995.13,-2.3,100,5.21,0.0,1023.42,48.3
2019-05-06 10:00,50.6304466666667,-96.9807416666667,5.4,7.5,322,995.17,-2.2,100,5.20,0.0,1023.46,49.4
2019-05-06 10:10,50.6304183333333,-96.9807566666667,5.0,7.3,322,995.28,-2.1,100,5.17,0.0,1023.56,49.4
2019-05-06 10:20,50.6304333333333,-96.9807566666667,5.4,7.5,312,995.33,-2.1,100,5.16,0.0,1023.62,49.4
2019-05-06 10:30,50.6304366666667,-96.9807616666667,5.2,7.5,308,995.41,-2.1,100,5.14,0.0,1023.70,49.4
2019-05-06 10:40,50.6304383333333,-96.9807616666667,5.4,7.2,313,995.44,-2.2,100,5.14,0.0,1023.74,49.4
2019-05-06 10:50,50.6304383333333,-96.9807616666667,5.1,7.0,319,995.57,-2.1,100,5.14,0.0,1023.87,49.4
2019-05-06 11:00,50.6304383333333,-96.9807633333333,5.5,7.6,313,995.61,-2.2,100,5.14,0.0,1023.92,0.0
2019-05-06 11:10,50.63044,-96.9807633333333,4.4,6.2,298,995.77,-2.2,100,5.14,0.0,1024.09,0.0
2019-05-06 11:20,50.63044,-96.9807633333333,4.3,6.2,303,995.84,-2.2,100,5.14,0.0,1024.16,0.0
2019-05-06 11:30,50.6304383333333,-96.9807633333333,4.8,6.7,295,995.88,-2.2,99,5.13,0.0,1024.21,0.0
2019-05-06 11:40,50.63044,-96.9807633333333,4.6,6.6,290,996.05,-2.1,99,5.13,0.0,1024.38,0.0
2019-05-06 11:50,50.63044,-96.9807633333333,4.6,6.4,294,996.20,-2.1,99,5.13,0.0,1024.52,0.0
2019-05-06 12:00,50.63044,-96.980765,4.2,6.5,295,996.32,-2.0,99,5.14,0.0,1024.63,142.0
2019-05-06 12:10,50.6304216666667,-96.9807833333333,4.7,6.6,294,996.38,-1.9,99,5.14,0.0,1024.69,142.0
2019-05-06 12:20,50.630445,-96.9807816666667,4.3,5.7,292,996.53,-1.8,99,5.14,0.0,1024.85,142.0
2019-05-06 12:30,50.630445,-96.9807816666667,4.1,5.9,285,996.72,-1.7,99,5.13,0.0,1025.04,142.0
2019-05-06 12:40,50.6304433333333,-96.9807783333333,4.4,6.1,296,996.80,-1.6,95,5.13,0.0,1025.12,142.0
2019-05-06 12:50,50.63044,-96.98078,4.2,5.9,287,996.89,-1.6,94,5.13,0.0,1025.21,142.0
2019-05-06 13:00,50.6304366666667,-96.980775,3.2,5.2,275,997.00,-1.5,93,5.13,0.0,1025.32,237.7
2019-05-06 13:10,50.6304366666667,-96.9807733333333,3.5,5.7,286,997.07,-1.3,89,5.13,0.0,1025.38,237.7
2019-05-06 13:20,50.630435,-96.980775,4.0,6.3,281,997.02,-1.2,87,5.13,0.0,1025.32,237.7
2019-05-06 13:30,50.630435,-96.9807716666667,4.0,6.3,287,997.13,-1.1,87,5.14,0.0,1025.43,237.7
2019-05-06 13:40,50.6304366666667,-96.980755,2.6,4.3,315,997.23,-0.6,81,5.14,0.0,1025.50,237.7
2019-05-06 13:50,50.6304366666667,-96.980765,3.3,5.4,320,997.21,-0.2,75,5.14,0.0,1025.45,237.7
2019-05-06 14:00,50.63044,-96.980765,3.9,7.2,351,997.23,-0.1,72,5.14,0.0,1025.46,0.0
2019-05-06 14:10,50.6304416666667,-96.9807666666667,6.0,10.5,0,997.31,0.2,66,5.15,0.0,1025.52,0.0
2019-05-06 14:20,50.6304416666667,-96.9807583333333,7.1,9.7,21,997.39,0.2,69,5.16,0.0,1025.60,0.0
2019-05-06 14:30,50.6304433333333,-96.9807733333333,7.6,9.0,14,997.44,0.1,71,5.18,0.0,1025.65,0.0
2019-05-06 14:40,50.6304266666667,-96.9807416666667,7.2,8.9,15,997.49,0.1,70,5.20,0.0,1025.70,0.0
2019-05-06 14:50,50.63045,-96.9807666666667,6.9,8.6,23,997.57,0.2,69,5.22,0.0,1025.77,0.0
2019-05-06 15:00,50.6304466666667,-96.9807666666667,7.6,9.1,31,997.52,0.2,74,5.24,0.0,1025.71,38.0
2019-05-06 15:10,50.6304483333333,-96.9807633333333,7.8,10.1,36,997.51,0.4,74,5.27,0.0,1025.69,38.0
2019-05-06 15:20,50.6304483333333,-96.9807616666667,10.4,12.0,37,997.46,0.4,70,5.30,0.0,1025.63,38.0
2019-05-06 15:30,50.630455,-96.9807733333333,10.0,11.4,32,997.51,0.3,71,5.32,0.0,1025.66,38.0
2019-05-06 15:40,50.6304483333333,-96.98077,8.1,9.7,27,997.71,0.4,73,5.33,0.0,1025.85,38.0
2019-05-06 15:50,50.63045,-96.98077,7.6,8.8,39,997.81,0.5,74,5.35,0.0,1025.93,38.0
2019-05-06 16:00,50.6304516666667,-96.9807766666667,9.0,10.6,59,997.72,0.3,82,5.37,0.0,1025.83,360.0
2019-05-06 16:10,50.6304333333333,-96.9807733333333,9.4,10.8,63,997.71,0.4,81,5.40,0.0,1025.82,360.0
2019-05-06 16:20,50.6304516666667,-96.9807866666667,8.0,9.3,65,997.79,0.7,78,5.43,0.0,1025.90,360.0
2019-05-06 16:30,50.63045,-96.9807816666667,7.3,8.7,68,997.87,0.9,76,5.45,0.0,1025.97,360.0
2019-05-06 16:40,50.63045,-96.9807833333333,7.5,8.8,66,997.93,0.8,77,5.46,0.0,1026.03,360.0
2019-05-06 16:50,50.63045,-96.9807733333333,6.8,8.5,71,997.97,1.1,75,5.45,0.0,1026.06,360.0
2019-05-06 17:00,50.6304483333333,-96.9807716666667,7.1,8.6,72,998.03,1.2,74,5.43,0.0,1026.10,311.7
2019-05-06 17:10,50.6304466666667,-96.9807716666667,6.9,8.0,74,998.07,1.5,69,5.35,0.0,1026.12,311.7
2019-05-06 17:20,50.630445,-96.9807716666667,4.9,7.2,82,998.14,2.0,66,5.28,0.0,1026.17,311.7
2019-05-06 17:30,50.630445,-96.9807683333333,4.4,5.6,93,998.21,2.8,63,5.21,0.0,1026.20,311.7
2019-05-06 17:40,50.6304433333333,-96.9807683333333,4.7,6.2,96,998.26,3.2,61,5.13,0.0,1026.23,311.7
2019-05-06 17:50,50.6304416666667,-96.9807716666667,3.6,4.3,95,998.27,3.5,59,5.10,0.0,1026.23,311.7
2019-05-06 18:00,50.63043,-96.9807816666667,3.9,4.5,99,998.23,3.6,60,5.10,0.0,1026.18,207.4
2019-05-06 18:10,50.6304316666667,-96.9807883333333,4.2,4.8,103,998.20,3.3,62,5.11,0.0,1026.15,207.4
2019-05-06 18:20,50.6304416666667,-96.9807633333333,4.3,5.1,99,998.15,2.8,63,5.14,0.0,1026.11,207.4
2019-05-06 18:30,50.6304416666667,-96.9807583333333,3.6,4.6,90,998.01,3.2,62,5.18,0.0,1025.94,207.4
2019-05-06 18:40,50.6304083333333,-96.9807716666667,3.9,4.9,93,998.01,3.4,63,5.21,0.0,1025.93,207.4
2019-05-06 18:50,50.630445,-96.9807683333333,4.1,4.8,96,998.03,3.8,63,5.23,0.0,1025.92,207.4
2019-05-06 19:00,50.63046,-96.9807766666667,4.4,5.3,95,998.00,3.8,64,5.24,0.0,1025.88,38.0
2019-05-06 19:10,50.630415,-96.9807683333333,4.8,5.6,100,997.99,3.6,66,5.25,0.0,1025.85,38.0
2019-05-06 19:20,50.630435,-96.9807633333333,5.1,6.1,96,997.93,3.5,66,5.25,0.0,1025.75,38.0
2019-05-06 19:30,50.6304366666667,-96.9807616666667,5.3,6.0,96,997.92,3.5,66,5.27,0.0,1025.72,38.0
2019-05-06 19:40,50.6304366666667,-96.9807616666667,4.9,5.8,100,997.87,3.4,68,5.28,0.0,1025.66,38.0
2019-05-06 19:50,50.63044,-96.9807633333333,5.4,6.4,105,997.86,3.1,71,5.29,0.0,1025.66,38.0
2019-05-06 20:00,50.63044,-96.9807633333333,5.5,6.4,107,997.93,2.8,72,5.32,0.0,1025.76,131.7
2019-05-06 20:10,50.63044,-96.980765,6.2,7.5,104,997.93,2.8,72,5.33,0.0,1025.78,131.7
2019-05-06 20:20,50.6304416666667,-96.980765,6.8,7.6,103,997.85,2.9,69,5.35,0.0,1025.68,131.7
2019-05-06 20:30,50.6304433333333,-96.980765,6.5,7.4,104,997.88,2.9,70,5.36,0.0,1025.70,131.7
2019-05-06 20:40,50.6304433333333,-96.980765,6.8,7.7,110,997.93,2.4,71,5.37,0.0,1025.76,131.7
2019-05-06 20:50,50.6304433333333,-96.980765,6.9,7.8,113,997.87,2.1,74,5.42,0.0,1025.71,131.7
2019-05-06 21:00,50.6304433333333,-96.980765,6.9,8.2,106,997.80,2.3,72,5.56,0.0,1025.64,41.2
2019-05-06 21:10,50.63042,-96.98076,7.4,8.7,106,997.74,2.6,67,5.64,0.0,1025.56,41.2
2019-05-06 21:20,50.6304266666667,-96.980785,7.1,8.4,119,997.71,2.2,72,5.66,0.0,1025.56,41.2
2019-05-06 21:30,50.6304683333333,-96.9807983333333,6.4,7.3,107,997.64,2.2,75,5.71,0.0,1025.49,41.2
2019-05-06 21:40,50.6304466666667,-96.9807616666667,6.6,7.7,107,997.61,2.6,70,5.80,0.0,1025.45,41.2
2019-05-06 21:50,50.6304516666667,-96.98077,6.4,7.1,103,997.54,3.0,69,5.84,0.0,1025.37,41.2
2019-05-06 22:00,50.63045,-96.9807683333333,6.0,7.0,119,997.53,2.4,73,5.87,0.0,1025.39,131.7
2019-05-06 22:10,50.6304283333333,-96.9807716666667,6.1,7.0,119,997.55,2.0,75,5.92,0.0,1025.43,131.7
2019-05-06 22:20,50.6304333333333,-96.98077,5.1,6.4,132,997.61,1.9,74,5.94,0.0,1025.50,131.7
2019-05-06 22:30,50.6304366666667,-96.9807666666667,6.3,7.5,121,997.66,2.2,70,5.94,0.0,1025.56,131.7
2019-05-06 22:40,50.6304366666667,-96.9807683333333,6.6,7.2,119,997.67,2.3,68,5.90,0.0,1025.59,131.7
2019-05-06 22:50,50.630415,-96.9807783333333,6.8,8.1,119,997.64,2.3,68,5.89,0.0,1025.55,131.7
2019-05-06 23:00,50.6304433333333,-96.9807683333333,6.7,7.7,112,997.57,2.4,68,5.89,0.0,1025.45,90.0
2019-05-06 23:10,50.6304183333333,-96.9807666666667,6.1,7.3,111,997.55,2.6,69,5.89,0.0,1025.44,90.0
2019-05-06 23:20,50.6304233333333,-96.9807716666667,6.1,6.6,106,997.57,2.8,68,5.94,0.0,1025.45,90.0
2019-05-06 23:30,50.630425,-96.980775,5.6,6.5,107,997.57,2.7,67,5.96,0.0,1025.43,90.0
